Location: San Gennaro Vesuviano
(40.8833°N, 14.5333°E)
Time: 10:31:05
(UTC+00:00)

Terra - Pass Details

Date: 22 April 2021
Orbit: 701 x 703 km, 98.2° (Epoch: 10 May)

Event Time Altitude Azimuth Distance (km) Brightness Sun altitude
Exits shadow 21:03:52 48° 346° (NNW) 916 2.6 -30.2°
Drops below altitude 10° 21:07:18 10° 347° (NNW) 2,177 5.1 -30.6°
Sets 21:09:34 0° 348° (NNW) 3,100 6.2 -30.8°
